#timestamp,LO_Frequency,Hit,StdDev 
1569988815.7,286046996.5,N
1569988835.6,286046998.5,N
1569988855.4,286046996.9,N
1569988875.2,286046997.8,N
1569988895.1,286046997.3,N
1569988896.0,286046997.3,N
1569988915.8,286046997.2,N
1569988935.7,286046998.0,N
1569988955.5,286046998.0,N
1569988975.3,286046998.0,N
1569988995.2,286046996.7,N
1569989015.0,286046999.3,N
1569989015.9,286046999.3,N
1569989035.7,286046998.6,N
1569989055.6,286047000.8,N
1569989075.4,286046999.4,N
1569989095.3,286047001.0,N
1569989115.1,286047002.8,N
1569989116.0,286047002.8,N
1569989135.8,286047000.8,N
1569989155.7,286046999.1,N
1569989175.5,286046999.6,N
1569989195.4,286046998.8,N
1569989215.2,286047002.2,N
1569989235.0,286046999.7,N
1569989235.9,286046999.7,N
1569989255.8,286047000.1,N
1569989275.6,286046998.9,N
1569989295.5,286046998.8,N
1569989315.3,286047000.6,N
1569989335.1,286047001.9,N
1569989355.9,286047001.3,N
1569989375.7,286047000.4,N
1569989395.5,286046998.2,N
1569989415.4,286046998.7,N
1569989435.2,286046997.1,N
1569989455.1,286046997.8,N
1569989456.0,286046997.8,N
1569989475.8,286046996.7,N
1569989495.6,286046998.7,N
1569989515.5,286047002.3,N
1569989535.3,286047000.6,N
1569989555.2,286047000.7,N
1569989575.9,286047002.1,N
1569989595.7,286047002.2,N
1569989615.6,286047000.1,N
1569989635.4,286046999.8,N
1569989655.2,286047002.4,N
1569989675.1,286047004.4,N
1569989676.0,286047004.4,N
1569989695.8,286047002.1,N
1569989715.7,286047002.8,N
1569989735.5,286047001.4,N
1569989755.3,286047002.0,N
1569989775.2,286047001.8,N
1569989795.0,286047001.9,N
1569989795.9,286047001.9,N
1569989815.8,286047002.6,N
1569989835.6,286047001.6,N
1569989855.4,286047005.6,N
1569989875.3,286047007.6,Y
1569989895.1,286047003.0,P
1569989915.9,286047006.0,P
1569989935.7,286047005.9,N
1569989955.5,286047005.4,N
1569989975.4,286047005.3,N
1569989995.2,286047004.9,N
1569990015.1,286047007.6,Y
1569990016.0,286047007.6,P
1569990035.8,286047002.3,N
1569990055.6,286047002.7,N
1569990075.5,286047000.4,N
1569990095.3,286047000.1,N
1569990115.2,286047000.5,N
1569990135.9,286047000.4,N
1569990155.7,286046999.7,N
1569990175.6,286047002.4,N
1569990195.4,286047000.6,N
1569990215.3,286047002.3,N
1569990235.1,286047000.3,N
1569990236.0,286047000.3,N
1569990255.8,286047000.7,N
1569990275.7,286046998.5,N
1569990295.5,286046998.3,N
1569990315.3,286046998.7,N
1569990335.2,286046999.1,N
1569990355.0,286046997.7,N
1569990355.9,286046997.7,N
1569990375.8,286046997.6,N
1569990395.6,286046997.2,N
1569990415.4,286046997.5,N
1569990435.3,286046997.2,N
1569990455.1,286046998.0,N
1569990475.8,286046997.7,N
1569990495.7,286046997.6,N
1569990515.5,286046996.6,N
1569990535.4,286046999.6,N
1569990555.2,286046996.9,N
1569990575.0,286046996.7,N
1569990575.9,286046996.7,N
1569990595.8,286046999.5,N
1569990615.6,286046996.7,N
1569990635.5,286046997.4,N
1569990655.3,286046995.1,N
1569990675.1,286046995.8,N
1569990695.9,286046995.6,N
1569990715.7,286046995.0,N
1569990735.5,286046995.8,N
1569990755.4,286046994.5,Y
1569990775.2,286046995.0,P
1569990795.1,286046995.5,P
1569990796.0,286046995.5,P
1569990815.8,286046994.0,Y
1569990835.6,286046999.4,P
1569990855.5,286046998.8,N
1569990875.3,286046999.2,N
1569990895.2,286046998.9,N
1569990915.9,286046998.5,N
1569990935.7,286047001.2,N
1569990955.6,286047001.1,N
1569990975.4,286046999.3,N
1569990995.3,286046996.7,N
1569991015.1,286046994.9,Y
1569991035.8,286046997.2,P
1569991055.7,286046997.2,P
1569991075.5,286046999.1,N
1569991095.4,286046996.9,Y
1569991115.2,286047000.8,P
1569991135.0,286046998.1,N
1569991135.9,286046998.1,N
1569991155.8,286046998.7,N
1569991175.6,286046998.2,N
1569991195.5,286047011.9,Y
1569991215.3,286047002.2,P
1569991235.1,286047002.3,N
1569991255.9,286047004.3,N
1569991275.7,286047000.1,N
1569991295.6,286047002.8,N
1569991315.4,286047000.6,N
1569991335.2,286046999.9,N
1569991355.1,286047000.4,N
1569991356.0,286047000.4,N
1569991375.8,286047000.1,N
1569991395.7,286047000.5,N
1569991415.5,286047002.3,N
1569991435.5,286047006.0,Y
1569991455.3,286047002.8,P
1569991475.1,286046999.9,N
1569991495.9,286046999.8,N
1569991515.7,286047002.2,N
1569991535.5,286047002.1,N
1569991555.4,286046999.9,N
1569991575.2,286047002.5,N
1569991595.1,286047002.0,N
1569991596.0,286047002.0,N
1569991615.8,286047000.2,N
1569991635.6,286047000.9,N
1569991655.5,286046998.3,N
1569991675.3,286047000.2,N
1569991695.1,286047002.4,N
1569991715.9,286046999.8,N
1569991735.7,286047002.7,N
1569991755.6,286047001.9,N
1569991775.4,286047004.3,Y
1569991795.2,286046999.7,P
1569991815.1,286047000.0,N
1569991816.0,286047000.0,N
1569991835.8,286046998.1,Y
1569991855.7,286046998.5,P
1569991875.5,286046998.6,N
1569991895.3,286047000.5,N
1569991915.2,286047001.0,N
1569991935.0,286047001.2,N
1569991935.9,286047001.2,N
1569991955.8,286047002.3,N
1569991975.6,286047001.0,N
1569991995.4,286047000.3,N
1569992015.3,286046998.5,N
1569992035.1,286047000.6,N
1569992055.8,286046999.7,N
1569992075.7,286047001.8,N
1569992095.5,286047000.0,N
1569992115.4,286046999.8,N
1569992135.2,286047000.1,N
1569992155.0,286047001.1,N
1569992155.9,286047001.1,N
1569992175.8,286046998.2,N
1569992195.6,286047001.0,N
1569992215.4,286047000.5,N
1569992235.3,286047000.3,N
1569992255.1,286047002.7,N
1569992275.9,286047002.8,N
1569992295.7,286047002.3,N
1569992315.5,286047002.2,N
1569992335.4,286047001.6,N
1569992355.2,286047002.2,N
1569992375.1,286047002.6,N
1569992406.0,286047004.4,E
